TimeCDT,TemperatureF,Dew PointF,Humidity,Sea Level PressureIn,VisibilityMPH,Wind Direction,Wind SpeedMPH,Gust SpeedMPH,PrecipitationIn,Events,Conditions,WindDirDegrees,DateUTC
12:53 AM,64.0,44.1,48,29.86,10.0,SSW,10.4,-,N/A,,Clear,200,2013-09-30 05:53:00
1:53 AM,63.0,45.0,52,29.84,10.0,SW,11.5,-,N/A,,Clear,220,2013-09-30 06:53:00
2:53 AM,60.1,45.0,57,29.83,10.0,SW,9.2,-,N/A,,Clear,230,2013-09-30 07:53:00
3:53 AM,61.0,44.1,54,29.80,10.0,SW,12.7,-,N/A,,Clear,230,2013-09-30 08:53:00
4:53 AM,60.1,44.1,55,29.79,10.0,WSW,12.7,-,N/A,,Clear,250,2013-09-30 09:53:00
5:53 AM,59.0,44.1,58,29.77,10.0,WSW,11.5,-,N/A,,Clear,250,2013-09-30 10:53:00
6:53 AM,57.0,43.0,59,29.78,10.0,WSW,11.5,-,N/A,,Clear,250,2013-09-30 11:53:00
7:53 AM,53.1,43.0,69,29.80,10.0,West,6.9,-,N/A,,Scattered Clouds,270,2013-09-30 12:53:00
8:53 AM,57.9,44.1,60,29.80,10.0,WNW,6.9,-,N/A,,Scattered Clouds,290,2013-09-30 13:53:00
9:53 AM,66.0,41.0,40,29.80,10.0,West,10.4,-,N/A,,Scattered Clouds,270,2013-09-30 14:53:00
10:53 AM,75.0,37.9,26,29.79,10.0,West,12.7,-,N/A,,Scattered Clouds,260,2013-09-30 15:53:00
11:53 AM,81.0,30.9,16,29.76,10.0,West,16.1,20.7,N/A,,Scattered Clouds,260,2013-09-30 16:53:00
12:53 PM,84.0,30.0,14,29.74,10.0,WSW,15.0,21.9,N/A,,Scattered Clouds,240,2013-09-30 17:53:00
1:53 PM,87.1,28.9,12,29.71,10.0,SW,16.1,21.9,N/A,,Scattered Clouds,220,2013-09-30 18:53:00
2:53 PM,90.0,25.0,10,29.68,10.0,WSW,11.5,26.5,N/A,,Scattered Clouds,240,2013-09-30 19:53:00
3:53 PM,90.0,25.0,10,29.66,10.0,WSW,8.1,20.7,N/A,,Mostly Cloudy,240,2013-09-30 20:53:00
4:53 PM,91.0,26.1,10,29.66,10.0,West,11.5,18.4,N/A,,Mostly Cloudy,280,2013-09-30 21:53:00
5:53 PM,90.0,28.0,11,29.67,10.0,West,8.1,-,N/A,,Scattered Clouds,280,2013-09-30 22:53:00
6:53 PM,87.1,28.0,12,29.68,10.0,WSW,8.1,-,N/A,,Scattered Clouds,250,2013-09-30 23:53:00
7:53 PM,80.1,30.0,16,29.71,10.0,Calm,Calm,-,N/A,,Partly Cloudy,0,2013-10-01 00:53:00
8:53 PM,75.9,28.9,18,29.71,10.0,Calm,Calm,-,N/A,,Clear,0,2013-10-01 01:53:00
9:53 PM,66.0,42.1,42,29.73,10.0,ESE,6.9,-,N/A,,Clear,120,2013-10-01 02:53:00
10:53 PM,66.9,37.9,34,29.72,10.0,SW,6.9,-,N/A,,Clear,220,2013-10-01 03:53:00
11:53 PM,64.9,37.0,36,29.72,10.0,SSE,9.2,-,N/A,,Clear,150,2013-10-01 04:53:00